Wind_Speed
61 59 56 56 59 62 64 61 61 66 67 64 63 63 64 65 67 69 69 71 71 72 73 72 70 67 65 63 61 58 56 53 48 42 41 45 47 47 45 42 40 31 26
59 62 63 65 68 68 68 61 59 61 65 67 66 65 66 68 70 70 71 72 73 74 75 75 74 73 67 65 65 63 60 56 51 51 39 41 50 46 47 41 36 30 25
67 69 67 66 66 65 64 61 59 57 58 62 65 66 67 68 70 71 72 72 72 73 74 73 71 72 70 63 58 58 56 53 53 50 44 41 44 48 44 40 35 30 27
66 67 67 66 66 63 60 61 59 56 53 55 59 63 65 65 66 67 69 70 69 68 68 68 67 65 64 62 57 48 49 53 54 45 39 46 42 53 49 41 37 32 28
67 68 68 67 66 64 62 59 58 59 57 54 58 62 66 71 74 75 73 69 68 66 66 66 67 67 66 60 54 47 44 48 47 47 48 56 39 42 48 42 39 36 29
67 68 68 67 66 63 61 60 59 59 59 58 55 56 56 59 64 69 68 59 60 62 60 57 66 70 65 64 58 55 49 50 59 57 31 34 51 55 49 39 41 35 32
64 64 63 62 60 57 58 59 59 59 60 62 61 58 52 53 58 62 65 62 60 61 57 56 57 63 69 63 62 61 56 48 51 53 44 40 44 47 41 33 37 34 32
59 58 58 55 55 57 59 58 58 61 59 55 56 56 58 57 57 58 60 63 61 58 55 55 61 62 60 63 62 65 60 58 48 46 41 40 42 40 34 33 30 31 33
54 53 52 55 57 55 56 57 55 52 56 58 59 60 62 61 58 61 60 60 56 52 51 52 57 46 50 63 76 75 73 56 51 44 47 43 41 33 35 37 32 30 33
49 51 52 50 51 52 51 51 53 58 59 58 60 62 62 55 51 51 58 55 47 46 42 40 32 38 51 20 22 33 37 41 44 49 44 29 23 31 29 25 25 24 28
46 44 46 49 48 49 53 55 57 58 58 61 59 61 57 53 50 50 50 49 39 36 27 25 23 21 22 24 27 37 46 55 51 37 30 31 28 23 22 22 21 22 26
41 44 44 47 51 52 55 59 58 57 54 52 56 53 50 49 48 48 43 33 31 26 29 26 18 24 34 38 39 39 37 31 31 30 29 26 21 21 22 23 24 27 29
38 41 45 48 52 54 60 58 55 52 50 50 47 40 42 38 35 32 28 28 29 34 32 21 28 26 27 30 27 27 30 29 26 25 25 24 24 20 15 16 20 23 23
38 40 45 49 53 54 54 50 47 47 47 44 38 33 32 27 26 28 28 30 41 41 37 27 23 23 28 29 33 31 30 27 27 27 27 24 22 17 16 13 15 18 21
40 42 47 50 49 49 51 50 47 44 39 37 33 33 21 20 20 24 31 44 50 42 32 30 24 22 33 33 34 32 29 29 29 28 23 18 16 13 9 12 13 12 15
38 40 43 46 51 48 50 48 43 35 32 30 29 19 17 15 18 24 42 51 48 45 40 34 27 24 33 34 31 33 31 29 27 23 19 18 12 4 6 11 12 14 14
35 39 43 47 47 46 47 37 33 28 26 21 20 15 15 15 20 37 46 46 49 49 43 36 30 26 32 37 33 31 31 30 26 20 18 19 13 6 8 9 14 12 12
38 40 43 43 45 46 38 28 24 22 21 15 14 14 11 18 34 53 46 41 55 51 42 37 33 30 32 35 35 33 29 25 20 18 20 18 12 10 9 9 12 12 13
41 43 40 44 44 38 30 25 22 18 17 11 13 13 13 29 53 52 40 35 41 43 44 42 37 34 35 31 29 30 26 26 25 22 20 18 14 12 10 11 13 13 15
44 40 43 39 34 31 28 19 10 11 10 7 13 12 19 50 52 46 39 34 35 41 42 41 42 36 35 31 29 27 28 28 26 22 19 16 14 15 12 12 15 15 19
42 36 42 34 30 28 18 7 1 6 2 11 11 12 35 52 50 48 42 36 37 35 38 41 38 33 29 30 31 30 29 23 18 17 17 18 19 19 15 16 18 19 21
40 36 43 33 27 25 19 10 7 7 9 11 11 22 47 47 48 48 44 35 39 34 34 34 35 33 30 33 32 29 23 20 19 19 20 22 23 19 19 19 20 23 25
44 41 40 36 26 23 19 15 10 11 15 15 18 33 43 40 41 41 41 42 37 36 36 27 32 32 31 32 31 30 31 27 25 28 28 30 24 20 19 19 20 28 26
44 44 41 37 22 18 17 13 12 13 18 17 22 29 36 36 36 40 39 37 40 37 34 31 30 35 32 32 33 34 33 33 27 29 23 22 20 18 20 22 27 20 22
43 43 43 39 24 20 15 11 10 11 16 16 19 23 27 31 31 33 35 33 35 32 32 32 24 32 34 36 35 34 30 29 25 19 17 17 18 19 19 23 12 16 25
37 42 43 41 31 23 19 17 12 9 9 16 16 18 23 27 29 33 37 38 35 31 30 30 29 30 33 33 28 23 22 23 21 19 19 17 16 21 20 11 22 30 31
Wind_Direction
283 285 284 283 284 281 277 278 279 277 276 274 272 271 270 270 270 269 269 270 270 271 272 272 272 270 267 265 265 263 264 261 254 263 257 257 266 263 264 260 252 249 249
279 280 281 280 279 277 276 276 276 274 275 274 274 271 270 269 268 268 268 267 267 268 269 270 271 271 270 266 262 260 259 262 260 253 251 262 260 254 254 247 244 240 242
278 279 280 278 276 276 277 276 274 272 271 271 271 271 270 269 269 269 270 271 272 271 269 268 269 270 270 271 268 263 259 256 256 254 257 253 247 247 246 238 235 236 241
276 276 276 279 280 282 284 281 277 276 273 269 268 270 272 272 272 272 272 269 268 269 268 267 267 268 268 268 267 262 254 252 254 253 247 251 263 240 236 228 231 232 233
278 279 280 284 287 289 287 286 284 280 278 272 267 266 268 270 272 272 272 271 270 268 265 265 266 268 269 266 257 260 259 243 248 243 256 242 247 226 222 222 229 233 236
276 279 282 285 286 287 287 284 282 281 280 279 276 273 271 268 266 269 272 271 268 268 270 268 264 263 263 263 259 254 256 252 245 237 250 232 227 224 218 217 230 229 232
274 277 281 283 282 283 282 282 283 284 284 284 285 284 279 274 266 263 266 267 265 268 270 268 268 265 257 259 259 260 256 253 253 241 241 230 222 225 218 218 231 236 237
279 280 280 281 281 282 284 285 283 283 284 285 285 283 281 275 271 271 263 260 265 271 271 267 270 268 255 256 254 254 253 253 243 229 228 223 220 220 211 229 234 242 251
282 282 284 283 284 283 283 283 284 284 288 287 282 280 278 278 276 272 269 259 259 265 269 271 274 266 260 264 258 252 243 232 217 213 209 211 206 201 209 229 238 243 242
279 281 282 285 286 288 289 287 286 285 285 282 282 284 283 280 275 276 268 266 257 260 264 266 263 268 276 238 191 180 183 194 204 204 202 192 190 212 220 225 233 238 243
285 287 287 287 289 288 290 289 289 289 287 285 287 286 279 273 269 273 267 266 250 252 237 235 250 257 185 162 176 173 182 192 197 185 181 197 199 198 213 226 239 244 250
287 287 290 291 291 290 294 296 293 288 290 290 293 283 273 274 269 270 261 236 235 211 200 215 205 133 155 157 162 168 175 181 175 179 179 177 186 200 214 225 231 236 242
288 291 291 294 296 297 298 296 294 292 290 295 290 280 280 276 266 249 230 223 201 182 198 192 205 178 167 166 176 182 175 174 174 173 173 179 185 185 198 221 234 240 244
294 294 296 299 303 301 299 295 291 293 289 294 283 283 277 259 253 246 222 196 181 179 187 176 185 186 187 174 179 171 167 172 174 179 182 186 196 207 215 231 235 241 240
301 300 299 305 304 304 303 297 293 290 289 289 277 287 257 257 244 209 195 181 171 187 194 178 184 190 190 166 167 171 174 175 179 181 185 194 203 215 230 248 245 250 252
307 304 304 306 309 303 302 296 293 285 285 286 279 260 248 233 204 201 179 177 180 180 179 180 178 176 175 168 170 170 172 175 181 188 188 195 191 207 252 255 255 243 246
323 315 309 309 309 306 307 300 292 278 279 276 274 241 234 226 209 181 167 179 176 178 180 181 182 181 182 173 172 173 179 180 182 190 200 201 204 229 257 255 249 244 238
332 324 323 318 312 311 308 299 294 272 269 270 244 221 228 199 178 173 170 170 176 181 184 184 183 186 184 179 175 179 181 178 192 198 199 201 206 228 266 260 251 247 238
337 333 330 325 319 318 310 301 285 268 255 265 218 212 209 184 173 175 163 164 179 175 180 183 183 187 186 183 179 180 183 191 197 200 199 211 221 231 259 259 250 247 246
342 339 340 336 335 328 322 313 273 246 221 245 202 200 189 176 174 173 169 168 177 184 183 185 183 190 193 191 187 187 187 196 200 202 208 220 231 240 251 253 250 252 256
348 350 354 350 351 350 352 3 8 175 177 169 176 181 172 175 173 171 166 173 175 178 179 182 184 184 183 188 190 195 206 211 210 214 217 221 232 240 249 248 245 253 261
0 2 5 3 10 16 29 40 105 111 129 145 139 163 167 174 173 172 171 166 176 179 182 184 188 194 196 194 195 199 210 214 223 226 234 243 242 246 252 249 252 257 263
14 8 8 11 18 32 47 65 83 99 136 134 131 157 167 170 175 178 182 189 183 183 186 187 196 199 200 205 203 210 215 220 229 234 235 244 245 251 250 249 255 262 266
8 13 13 13 21 35 42 54 72 115 145 141 146 153 168 175 173 180 183 183 187 193 200 202 194 198 199 203 208 213 219 227 234 237 234 240 243 247 241 247 261 253 214
15 19 19 20 32 41 53 56 68 95 149 142 149 159 166 174 181 185 190 189 192 191 193 195 184 196 200 204 209 215 227 230 230 220 221 233 232 234 250 255 238 182 175
21 24 28 31 37 42 51 58 70 71 141 165 148 155 165 173 179 185 193 196 197 192 190 184 189 195 198 203 211 216 204 205 208 207 206 211 214 234 248 209 163 156 157
Height
5709 5708 5708 5708 5704 5700 5694 5695 5692 5685 5682 5682 5681 5681 5681 5681 5680 5678 5678 5677 5677 5676 5675 5677 5678 5680 5684 5686 5689 5692 5694 5700 5703 5703 5704 5707 5712 5715 5717 5720 5724 5725 5726
5695 5693 5692 5689 5686 5681 5679 5681 5677 5672 5668 5666 5665 5664 5663 5662 5661 5661 5661 5661 5661 5661 5661 5660 5661 5663 5668 5671 5674 5678 5682 5684 5686 5690 5692 5696 5700 5703 5706 5709 5715 5718 5719
5678 5676 5673 5670 5667 5665 5663 5662 5659 5656 5654 5651 5648 5646 5645 5644 5643 5642 5643 5644 5644 5644 5644 5644 5644 5644 5648 5650 5654 5659 5664 5669 5671 5675 5678 5683 5689 5692 5696 5700 5704 5708 5712
5662 5658 5655 5653 5650 5649 5647 5644 5641 5639 5639 5635 5631 5627 5626 5625 5624 5623 5623 5623 5624 5626 5626 5626 5628 5628 5631 5635 5637 5642 5645 5651 5656 5661 5664 5668 5669 5675 5683 5690 5694 5699 5701
5645 5641 5638 5636 5634 5631 5628 5625 5621 5618 5617 5617 5614 5612 5611 5608 5604 5602 5601 5603 5604 5607 5608 5610 5611 5612 5614 5618 5622 5627 5629 5634 5641 5648 5653 5656 5663 5669 5674 5679 5685 5689 5691
5631 5628 5625 5622 5619 5615 5611 5607 5603 5600 5597 5595 5593 5591 5590 5589 5588 5584 5581 5584 5584 5586 5588 5592 5593 5594 5598 5600 5606 5610 5616 5622 5628 5636 5642 5643 5649 5654 5661 5667 5674 5678 5683
5618 5616 5613 5609 5604 5600 5595 5590 5586 5581 5577 5574 5571 5570 5571 5569 5568 5567 5565 5566 5566 5568 5572 5573 5572 5573 5576 5581 5587 5591 5599 5607 5617 5623 5631 5635 5640 5648 5651 5658 5665 5668 5671
5605 5602 5597 5593 5588 5583 5578 5574 5569 5565 5560 5557 5554 5550 5548 5549 5549 5547 5547 5547 5549 5551 5554 5554 5552 5551 5555 5560 5567 5572 5580 5592 5604 5613 5621 5626 5631 5637 5643 5647 5651 5657 5661
5589 5585 5581 5576 5571 5567 5562 5557 5553 5548 5544 5540 5537 5534 5530 5527 5527 5527 5526 5526 5532 5538 5537 5538 5534 5535 5537 5537 5536 5541 5556 5576 5590 5600 5606 5610 5618 5629 5637 5642 5644 5648 5653
5574 5571 5567 5561 5555 5551 5545 5540 5536 5531 5526 5522 5517 5513 5510 5509 5506 5507 5506 5510 5518 5522 5525 5525 5526 5523 5524 5523 5521 5529 5545 5568 5581 5588 5593 5602 5611 5622 5629 5636 5640 5644 5647
5562 5558 5552 5546 5540 5535 5530 5524 5517 5512 5506 5501 5497 5492 5489 5490 5490 5490 5491 5497 5504 5510 5514 5519 5520 5515 5520 5522 5528 5534 5548 5564 5572 5580 5586 5598 5609 5617 5623 5629 5632 5635 5636
5549 5544 5538 5533 5527 5520 5514 5506 5498 5492 5488 5483 5477 5472 5471 5471 5472 5474 5478 5484 5491 5500 5507 5514 5519 5519 5521 5526 5533 5540 5552 5563 5569 5578 5587 5596 5605 5612 5619 5623 5626 5627 5626
5537 5532 5526 5519 5512 5504 5496 5488 5481 5475 5471 5466 5460 5456 5456 5455 5456 5459 5466 5474 5483 5493 5502 5507 5515 5519 5523 5528 5538 5547 5552 5559 5568 5577 5587 5597 5604 5610 5615 5617 5617 5618 5618
5527 5520 5513 5506 5497 5488 5479 5472 5466 5460 5456 5451 5447 5445 5444 5444 5448 5452 5458 5466 5478 5490 5499 5504 5514 5518 5526 5532 5540 5545 5553 5561 5568 5577 5587 5594 5600 5605 5607 5607 5610 5612 5613
5515 5508 5501 5492 5482 5474 5464 5455 5450 5446 5442 5438 5436 5435 5434 5437 5439 5443 5451 5462 5473 5486 5495 5503 5513 5518 5525 5530 5536 5544 5552 5560 5568 5575 5584 5591 5596 5599 5598 5601 5604 5605 5608
5505 5497 5489 5479 5469 5460 5450 5442 5435 5432 5430 5427 5427 5427 5428 5431 5436 5440 5447 5458 5470 5484 5492 5502 5512 5518 5524 5529 5538 5546 5553 5560 5567 5574 5581 5586 5589 5592 5595 5598 5599 5601 5605
5496 5486 5477 5467 5456 5445 5435 5428 5422 5421 5420 5419 5420 5421 5424 5427 5432 5439 5449 5458 5468 5480 5491 5500 5509 5517 5523 5529 5537 5545 5552 5559 5566 5572 5577 5582 5586 5587 5591 5593 5598 5598 5601
5488 5476 5466 5454 5442 5431 5422 5417 5413 5411 5411 5413 5415 5417 5421 5424 5430 5439 5448 5459 5470 5481 5491 5500 5507 5516 5523 5529 5534 5542 5549 5556 5562 5570 5575 5579 5581 5585 5588 5589 5593 5595 5598
5480 5468 5456 5443 5430 5420 5412 5407 5404 5403 5404 5409 5411 5414 5418 5422 5430 5439 5449 5459 5470 5480 5490 5500 5508 5516 5523 5529 5535 5542 5548 5555 5561 5568 5572 5576 5578 5579 5583 5587 5590 5593 5595
5474 5461 5449 5434 5422 5411 5403 5397 5396 5398 5401 5405 5408 5412 5415 5424 5433 5444 5453 5463 5472 5481 5490 5498 5507 5516 5524 5529 5534 5541 5547 5552 5559 5564 5568 5570 5573 5577 5581 5585 5587 5590 5591
5471 5458 5444 5429 5418 5407 5398 5395 5395 5398 5402 5405 5408 5410 5415 5425 5436 5446 5456 5465 5474 5482 5491 5500 5508 5515 5523 5529 5535 5538 5543 5550 5554 5560 5564 5567 5572 5576 5579 5581 5583 5585 5587
5470 5457 5444 5430 5419 5410 5403 5400 5400 5403 5405 5409 5412 5413 5422 5430 5440 5449 5459 5467 5476 5483 5491 5499 5507 5514 5521 5527 5532 5535 5541 5545 5550 5555 5560 5567 5570 5573 5576 5576 5578 5580 5582
5471 5458 5445 5434 5424 5417 5412 5409 5408 5408 5411 5414 5418 5422 5429 5437 5445 5453 5461 5469 5477 5484 5492 5498 5505 5511 5518 5525 5529 5533 5539 5544 5549 5555 5561 5565 5568 5570 5571 5573 5574 5574 5574
5474 5461 5449 5438 5429 5423 5419 5416 5414 5414 5416 5419 5424 5428 5435 5441 5448 5455 5462 5469 5477 5485 5491 5497 5503 5510 5517 5524 5529 5534 5538 5544 5549 5555 5558 5561 5564 5566 5568 5569 5567 5566 5568
5477 5466 5454 5442 5433 5429 5425 5423 5422 5422 5424 5426 5430 5434 5439 5445 5450 5457 5463 5470 5478 5485 5491 5498 5503 5509 5516 5522 5528 5533 5538 5544 5549 5551 5555 5558 5561 5563 5564 5564 5562 5564 5568
5483 5473 5462 5451 5442 5437 5432 5430 5428 5427 5428 5432 5436 5440 5444 5449 5453 5458 5464 5470 5476 5483 5490 5497 5504 5510 5516 5521 5526 5533 5538 5542 5546 5550 5553 5557 5559 5560 5559 5558 5559 5561 5568